Location: Berg
(48.4333°N, 13.9167°E)
Time: 05:12:56
(UTC+00:00)

ATLAS CENTAUR R/B - Pass Details

Date: 23 January 2021
Orbit: 475 x 670 km, 64.7° (Epoch: 06 March)

Event Time Altitude Azimuth Distance (km) Brightness Sun altitude
Rises 04:16:44 0° 178° (S) 2,546 4.8 -24.1°
Reaches altitude 10° 04:19:22 10° 159° (SSE) 1,653 4.0 -23.7°
Maximum altitude 04:21:54 18° 115° (ESE) 1,237 3.9 -23.3°
Drops below altitude 10° 04:24:25 10° 71° (ENE) 1,648 4.7 -22.9°
Sets 04:27:02 0° 52° (NE) 2,536 5.4 -22.4°
